Regional Weather Roundup
Issued by NWS

Home | Current Version | Previous Version | Text Only | Print | Product List | Glossary Off
Versions: 1 2 3 4 5 6 7 8 9 10 11 12 13 14 15 16 17 18 19 20 21 22 23 24 25 26 27 28 29 30 31 32 33 34 35 36 37 38 39 40 41 42 43 44 45 46 47 48 49 50

000
ASUS43 KOAX 191702
RWRNE

WEATHER ROUNDUP FOR NEBRASKA
NATIONAL WEATHER SERVICE OMAHA NE
1100 AM CST FRI DEC 19 2014

NOTES: SATELLITE DATA IS BEING USED TO AUGMENT CLOUD COVER ABOVE
       12000 FEET.
       "FAIR" INDICATES FEW OR NO CLOUDS BELOW 12,000 FEET WITH NO
       SIGNIFICANT WEATHER AND/OR OBSTRUCTIONS TO VISIBILITY.

  * THESE STATIONS DO NOT REPORT WEATHER SUCH AS RAIN...SNOW OR FOG.

NEZ001>004-019>022-054>056-191800-
NEBRASKA PANHANDLE

CITY           SKY/WX    TMP DP  RH WIND       PRES   REMARKS
SCOTTSBLUFF    SUNNY     19  17  92 N5        30.06S WCI  12
ALLIANCE       SUNNY     19  14  81 W6        30.03S WCI  11
CHADRON        SUNNY     31  19  61 W10       30.04R WCI  22
SIDNEY         SUNNY     32  19  58 W8        30.07S WCI  25
$$

NEZ057>060-069>072-079>082-191800-
SOUTHWEST NEBRASKA

CITY           SKY/WX    TMP DP  RH WIND       PRES   REMARKS
NORTH PLATTE   SUNNY     28  23  81 W7        30.09F WCI  21
IMPERIAL       SUNNY     31  25  78 W6        30.10F WCI  25
MCCOOK         SUNNY     27  24  89 W5        30.13S WCI  22
$$

NEZ005>010-023>029-035>040-094-191800-
NORTH CENTRAL NEBRASKA

CITY           SKY/WX    TMP DP  RH WIND       PRES   REMARKS
VALENTINE      SUNNY     26  20  77 SW10      30.02F WCI  16
BROKEN BOW     SUNNY     26  25  96 SE5       30.08F WCI  20
$$

NEZ041-046>049-061>064-073>077-083>087-191800-
SOUTH CENTRAL NEBRASKA

CITY           SKY/WX    TMP DP  RH WIND       PRES   REMARKS
GRAND ISLAND   CLOUDY    30  28  92 SW10      30.17R FOG     WCI  21
HASTINGS       CLOUDY    30  28  92 SW6       30.16S FOG     WCI  24
KEARNEY *      CLOUDY    27  25  93 S9        30.15S VSB 3/4 WCI  17
$$

NEZ011>018-030>034-042>045-191800-
NORTHEAST NEBRASKA

CITY           SKY/WX    TMP DP  RH WIND       PRES   REMARKS
NORFOLK        CLOUDY    31  28  89 S12       30.15S WCI  22
COLUMBUS *     CLOUDY    32  25  74 S8        30.19F WCI  25
TEKAMAH        CLOUDY    34  30  85 S10       30.22F FOG     WCI  26
$$

NEZ050>053-065>068-078-088>093-191800-
SOUTHEAST NEBRASKA

CITY           SKY/WX    TMP DP  RH WIND       PRES   REMARKS
LINCOLN        CLOUDY    33  28  81 S9        30.24S WCI  25
OMAHA EPPLEY   CLOUDY    33  29  85 S10       30.25S FOG     WCI  25
FALLS CITY     CLOUDY    29  26  89 S7        30.28R WCI  22
$$

NEZ044-045-051>053-067-191800-
OMAHA AREA

CITY           SKY/WX    TMP DP  RH WIND       PRES   REMARKS
OMAHA EPPLEY   CLOUDY    33  29  85 S10       30.25S FOG     WCI  25
OFFUTT AFB     CLOUDY    32  29  90 SE5       30.24S WCI  28
$$


USA.gov is the U.S. government's official web portal to all federal, state and local government web resources and services.